This is the latest recevied weather packets stored in our database for station/object EA1EXV-11. If no packets are shown the sender has not sent any weather packets the latest 10 day(s).
| Time | Temp. | Humidity | Pressure | Rain* | Wind** | Luminosity | Snow |
|---|---|---|---|---|---|---|---|
| 1777888203 | 15° C | 81% | 1017 hPa | - | - | - | - |
| 1777887303 | 13.33° C | 82% | 1017.1 hPa | - | - | - | - |
| 1777886403 | 13.89° C | 82% | 1016.9 hPa | - | - | - | - |
| 1777885503 | 13.89° C | 83% | 1016.8 hPa | - | - | - | - |
| 1777884603 | 13.89° C | 84% | 1016.9 hPa | - | - | - | - |
| 1777883703 | 12.78° C | 84% | 1016.9 hPa | - | - | - | - |
| 1777882803 | 12.22° C | 84% | 1016.9 hPa | - | - | - | - |
| 1777881902 | 11.11° C | 84% | 1017 hPa | - | - | - | - |
| 1777881002 | 10° C | 85% | 1016.9 hPa | - | - | - | - |
| 1777880102 | 10° C | 85% | 1016.9 hPa | - | - | - | - |
| 1777879202 | 10° C | 84% | 1017 hPa | - | - | - | - |
| 1777878302 | 11.11° C | 84% | 1016.7 hPa | - | - | - | - |
| 1777877402 | 10° C | 85% | 1016.3 hPa | - | - | - | - |
| 1777876502 | 10° C | 84% | 1016.1 hPa | - | - | - | - |
| 1777875602 | 10° C | 85% | 1016.1 hPa | - | - | - | - |
| 1777874702 | 9.44° C | 84% | 1016 hPa | - | - | - | - |
| 1777873802 | 8.89° C | 84% | 1016 hPa | - | - | - | - |
| 1777872902 | 8.33° C | 84% | 1015.7 hPa | - | - | - | - |
| 1777872001 | 8.33° C | 84% | 1015.8 hPa | - | - | - | - |
| 1777871101 | 8.33° C | 84% | 1015.9 hPa | - | - | - | - |
| 1777870201 | 8.33° C | 84% | 1016 hPa | - | - | - | - |
| 1777869301 | 8.33° C | 83% | 1016 hPa | - | - | - | - |
| 1777868401 | 8.33° C | 83% | 1016 hPa | - | - | - | - |
| 1777867501 | 8.33° C | 83% | 1016.1 hPa | - | - | - | - |
| 1777866601 | 8.33° C | 83% | 1016.1 hPa | - | - | - | - |
* Rain since midnight (hover to see other rain measurements)
** Current wind speed in m/s (hover to see current wind gust speed)